Skip Page Navigation
NASA JPL Caltech
NASA Logo - Jet Propulsion Laboratory + View the NASA Portal
+ Center for Near-Earth Object Studies
JPL Home Earth Solar System Stars & Galaxies Technology
JPL Solar System Dynamics
BODIES ORBITS EPHEMERIDES TOOLS PHYSICAL DATA DISCOVERY FAQ SITE MAP
JPL Small-Body Database Browser
Search: [ help ]  
183099 (2002 RJ100)
Classification: Main-belt Asteroid          SPK-ID: 2183099
Ephemeris | Orbit Diagram | Orbital Elements | Mission Design | Physical Parameters | Discovery Circumstances ]

[ show orbit diagram ]
Orbital Elements at Epoch 2459000.5 (2020-May-31.0) TDB
Reference: JPL 20 (heliocentric ecliptic J2000)
 Element Value Uncertainty (1-sigma)   Units 
e .1590646159901898 4.6094e-08  
a 2.416863953378416 1.3104e-08 au
q 2.032426416733746 1.126e-07 au
i 6.570901931533218 5.5363e-06 deg
node 175.1605499284114 3.3812e-05 deg
peri 225.2582473982835 3.6803e-05 deg
M 237.5876499060223 1.4052e-05 deg
tp 2459467.158809104395
(2021-Sep-09.65880910)
5.4681e-05 TDB
period 1372.387435978546
3.76
1.1162e-05
3.056e-08
d
yr
n .2623165955634906 2.1334e-09 deg/d
Q 2.801301490023086 1.5188e-08 au
  Orbit Determination Parameters
   # obs. used (total)      423  
   data-arc span      6992 days (19.14 yr)  
   first obs. used      2000-03-03  
   last obs. used      2019-04-25  
   planetary ephem.      DE431  
   SB-pert. ephem.      SB431-N16  
   condition code      0  
   norm. resid. RMS      .59278  
   source      ORB  
   producer      Otto Matic  
   solution date      2020-Feb-24 19:31:31  

Additional Information
 Earth MOID = 1.04587 au 
 Jupiter MOID = 2.62345 au 
 T_jup = 3.490 
[ hide covariance matrix ]
Orbital Elements at Epoch 2457107.5 (2015-Mar-26.0) TDB
Reference: JPL 20 (heliocentric ecliptic J2000)
 Element Value Uncertainty (1-sigma)   Units 
e .1591919142659513 4.5902e-08  
q 2.032106164751334 1.1203e-07 au
tp 2456725.483730949066
(2014-Mar-08.98373095)
5.2494e-05 TDB
node 175.1998361963196 3.3817e-05 deg
peri 225.6681888529419 3.682e-05 deg
i 6.570049819181576 5.5363e-06 deg
  Orbit Determination Parameters
   # obs. used (total)      423  
   data-arc span      6992 days (19.14 yr)  
   first obs. used      2000-03-03  
   last obs. used      2019-04-25  
   planetary ephem.      DE431  
   SB-pert. ephem.      SB431-N16  
   condition code      0  
   norm. resid. RMS      .59278  
   source      ORB  
   producer      Otto Matic  
   solution date      2020-Feb-24 19:31:31  

Additional Information
 Jupiter MOID = 2.62345 au 
 T_jup = 3.490 
Orbit Covariance (6×6)
  e q tp node peri i
e 2.106955454217531E-15 -5.116861487002451E-15 -9.680802257636886E-13 1.497893447348551E-14 -2.799291493217497E-13 1.853442187664985E-16
q -5.116861487002451E-15 1.255141949884839E-14 2.264062983652446E-12 -3.707946202343365E-14 6.663745811809971E-13 -1.084274730604915E-16
tp -9.680802257636886E-13 2.264062983652446E-12 2.75562954839077E-9 -1.351122228069815E-11 7.737262053581792E-10 -1.993900907033256E-13
node 1.497893447348551E-14 -3.707946202343365E-14 -1.351122228069815E-11 1.143579946339902E-9 -1.139331433073022E-9 3.297398648406663E-11
peri -2.799291493217497E-13 6.663745811809971E-13 7.737262053581792E-10 -1.139331433073022E-9 1.35571991259225E-9 -3.27638967105173E-11
i 1.853442187664985E-16 -1.084274730604915E-16 -1.993900907033256E-13 3.297398648406663E-11 -3.27638967105173E-11 3.065051450610257E-11

Ephemeris | Orbit Diagram | Orbital Elements | Mission Design | Physical Parameters | Discovery Circumstances ]

Physical Parameter Table
Parameter Symbol Value Units Sigma Reference Notes
absolute magnitude H 16.6   n/a MPO436905  

183099 (2002 RJ100)          Discovered 2002-Sep-05 by LINEAR at Socorro
Reference: 20080420/Numbers.arcLast Updated: 2008-04-23

Alternate Designations
 2002 RJ100 = 2006 UO215 
Ephemeris | Orbit Diagram | Orbital Elements | Mission Design | Physical Parameters | Discovery Circumstances ]
ABOUT SSD CREDITS/AWARDS PRIVACY/COPYRIGHT GLOSSARY LINKS
FirstGov 2020-Aug-12 22:49 UT
(server date/time)  
NASA Home Page
Site Manager:   Ryan S. Park
Webmaster  Alan B. Chamberlin